Wind_Speed
53 53 53 54 52 52 52 52 51 51 50 49 49 50 51 52 51 50 50 49 49 48 47 47 46 45 43 42 41 40 40 39 39 40 39 38 37 36
54 54 54 54 54 53 53 53 53 53 53 52 52 52 52 53 53 52 51 50 50 49 49 47 47 47 46 45 43 42 41 41 40 40 39 37 36 36
53 53 55 54 54 53 53 55 55 55 57 56 55 53 53 53 54 53 52 52 51 50 49 49 48 47 47 46 45 43 42 42 41 40 40 38 38 37
51 51 52 52 52 52 54 56 57 58 59 58 57 56 56 56 56 56 55 54 53 52 51 51 50 49 48 47 45 44 43 43 43 42 41 40 38 38
50 50 51 52 53 54 56 57 58 59 60 59 58 57 58 58 58 58 56 55 54 53 52 51 51 50 48 47 46 45 45 44 44 44 43 41 39 38
49 51 52 54 55 55 56 57 58 57 58 59 59 59 59 59 59 58 56 55 55 54 53 52 51 50 49 48 47 47 47 46 45 45 44 41 39 39
49 51 53 54 55 56 57 58 58 59 60 60 60 60 60 60 60 59 58 58 57 56 56 54 53 53 52 51 50 50 49 48 47 46 44 42 40 39
50 51 52 53 55 55 56 58 59 60 61 61 62 62 62 62 62 62 62 61 60 58 58 57 57 56 55 53 52 51 50 49 49 47 45 43 41 39
49 51 53 54 55 57 58 60 60 61 62 63 64 63 64 64 64 64 64 64 62 61 61 60 59 59 58 56 54 52 52 51 50 48 46 43 41 40
50 52 54 56 58 59 61 62 62 63 65 66 67 66 66 66 66 66 65 65 65 64 63 63 61 60 59 58 56 54 52 51 49 48 46 43 42 40
51 54 56 58 60 62 64 65 66 67 67 68 69 69 68 68 69 69 69 68 67 66 65 64 61 60 59 57 56 55 54 52 50 48 46 44 42 39
54 55 58 60 62 64 65 66 67 67 67 67 68 69 68 69 69 69 69 69 68 66 65 64 63 62 61 59 57 56 54 52 50 48 45 43 41 40
56 58 60 62 64 66 67 67 67 67 67 67 67 67 68 68 67 67 67 67 67 66 64 63 62 61 60 59 57 55 53 51 49 47 45 43 41 40
59 60 61 63 65 66 67 68 67 67 66 67 67 67 68 68 67 66 65 65 65 64 62 61 61 60 59 57 55 53 51 49 47 45 43 42 41 39
60 61 62 63 64 65 66 67 67 67 66 66 66 66 66 65 65 64 64 64 63 62 60 60 60 59 57 55 52 51 49 47 45 44 42 41 40 38
59 60 61 62 63 64 64 65 65 65 65 65 64 63 63 62 61 61 60 60 59 58 58 58 57 55 53 51 49 47 45 44 43 43 42 40 39 38
58 59 60 60 61 61 61 61 60 60 60 59 59 58 58 58 58 57 57 56 56 55 54 52 51 50 49 48 46 45 45 44 43 42 41 40 39 37
57 58 58 57 57 57 57 57 56 56 55 55 54 54 54 53 52 51 50 50 50 50 49 49 49 49 48 46 45 44 44 43 41 40 39 39 39 38
55 54 54 54 53 52 52 52 52 51 51 50 48 48 47 46 45 45 45 45 44 44 44 45 45 45 46 44 43 43 42 41 40 39 39 38 38 37
52 51 50 50 49 48 47 46 46 46 45 44 42 41 41 40 39 40 40 41 42 41 41 41 41 41 42 42 42 41 40 39 39 39 38 37 38 37
50 48 47 45 44 43 42 41 40 39 39 38 37 35 36 36 35 34 35 36 38 38 39 39 38 38 38 38 39 39 39 39 38 37 37 37 37 37
46 44 42 40 39 38 38 37 35 34 33 32 32 31 31 31 31 31 30 31 32 33 35 37 37 37 37 37 37 36 37 37 37 37 36 35 36 36
41 38 37 35 34 34 33 32 31 30 29 29 28 27 27 27 27 28 28 29 30 30 32 34 36 36 37 37 37 37 36 35 35 35 35 36 36 36
Wind_Direction
252 254 256 258 260 261 262 264 266 267 267 269 270 270 270 272 273 274 275 276 276 276 276 277 277 276 276 277 279 281 283 283 283 285 286 288 291 293
254 255 256 259 260 261 262 263 265 266 267 269 270 271 271 271 273 273 274 274 275 276 276 277 277 276 275 276 278 280 280 281 282 284 285 286 288 291
255 257 257 258 259 260 262 263 265 267 268 269 270 270 270 272 272 273 273 274 275 275 275 275 276 276 275 275 276 277 279 279 281 282 283 283 286 287
256 258 258 258 260 261 262 263 264 266 269 269 269 270 269 270 271 272 272 274 275 275 274 275 276 275 275 275 276 277 278 279 279 280 280 281 283 285
256 258 258 258 260 261 263 264 265 268 269 269 269 269 269 270 271 272 273 273 273 273 273 274 274 274 275 275 276 276 276 277 277 277 277 279 280 282
257 259 260 260 261 263 264 264 267 268 270 270 269 269 270 271 272 272 272 272 272 272 272 273 273 274 274 274 274 274 274 275 275 275 275 276 276 278
259 261 261 261 262 264 265 266 268 270 271 271 271 271 272 272 272 272 271 270 271 271 271 272 272 273 272 272 273 273 273 273 273 272 273 273 273 275
260 261 262 264 265 265 267 268 270 271 272 272 272 272 272 271 271 271 270 269 270 271 271 271 271 271 270 270 271 270 270 271 270 270 269 268 270 272
265 265 266 267 268 270 271 271 272 273 273 273 273 273 273 271 271 271 270 270 271 270 270 269 269 270 269 269 269 269 269 269 269 268 266 266 267 268
270 270 270 271 271 272 272 273 273 274 274 274 274 273 272 271 271 270 270 269 269 269 270 269 267 268 268 268 267 267 267 267 266 265 264 264 264 264
273 273 273 274 274 274 274 274 275 275 274 274 273 273 271 271 270 269 268 268 268 269 268 267 266 266 266 266 266 265 264 265 264 262 262 261 260 259
276 276 276 276 276 277 277 277 277 276 275 275 273 272 271 271 270 269 268 268 268 268 267 266 267 266 265 264 263 263 262 262 261 260 258 256 256 255
279 279 278 279 279 279 278 278 278 277 276 275 273 271 271 270 269 268 266 266 266 266 265 264 264 264 264 263 261 260 260 259 257 256 254 252 252 252
282 282 281 281 280 280 279 279 279 278 277 276 275 273 271 270 269 268 266 264 263 264 263 262 262 262 261 261 259 257 257 256 253 251 250 249 248 247
285 284 284 282 281 280 279 279 278 277 276 275 274 273 272 270 269 267 266 264 262 261 260 259 258 258 258 256 255 255 253 252 249 248 246 245 244 243
288 286 285 284 282 281 280 279 278 277 276 275 274 273 271 270 268 267 265 262 260 259 257 256 255 254 253 252 250 249 247 245 245 244 243 243 242 242
290 289 288 286 285 282 280 279 278 277 276 275 274 272 270 269 267 266 264 261 258 256 255 252 251 250 248 247 244 243 242 240 239 240 240 239 238 239
293 292 290 288 287 284 281 279 277 277 276 275 273 271 269 267 265 263 261 258 255 252 250 248 246 244 242 240 238 238 237 235 235 235 235 236 236 236
296 295 293 291 288 286 284 281 278 276 275 274 272 270 267 265 263 260 258 254 251 247 245 243 240 239 236 235 235 234 233 234 234 233 233 233 234 234
298 297 295 293 290 288 286 284 281 279 277 274 271 269 266 263 260 257 253 249 244 241 238 236 235 234 231 232 231 230 230 230 231 231 230 231 232 232
299 298 296 294 292 290 288 286 283 280 277 273 271 268 264 261 257 253 249 244 239 235 232 230 229 227 226 227 227 226 227 227 229 230 230 230 230 231
300 298 297 296 294 292 289 287 283 280 276 273 270 267 263 259 254 249 244 238 233 231 229 226 225 224 224 224 223 222 224 226 228 229 228 228 230 231
301 299 297 296 295 294 291 287 284 281 276 273 269 265 259 253 248 243 238 233 229 228 226 223 222 221 221 222 222 222 223 224 224 226 227 228 229 230
Height
5706 5708 5709 5711 5712 5714 5715 5715 5716 5716 5718 5718 5718 5717 5716 5716 5716 5715 5715 5714 5714 5713 5713 5713 5712 5711 5711 5710 5710 5709 5709 5708 5708 5707 5706 5705 5704 5703
5694 5696 5697 5699 5700 5701 5702 5703 5703 5703 5704 5706 5705 5705 5704 5703 5703 5702 5702 5702 5701 5701 5701 5700 5700 5700 5699 5699 5698 5698 5698 5697 5697 5696 5696 5695 5694 5693
5682 5684 5685 5686 5687 5688 5689 5690 5690 5690 5690 5692 5691 5691 5690 5690 5690 5689 5689 5688 5688 5688 5687 5687 5687 5687 5687 5686 5686 5686 5686 5686 5685 5685 5685 5684 5684 5683
5669 5671 5672 5673 5674 5675 5675 5676 5677 5676 5676 5676 5677 5677 5676 5676 5676 5676 5675 5674 5674 5674 5674 5674 5674 5674 5674 5674 5674 5674 5674 5674 5674 5674 5673 5673 5673 5672
5657 5658 5660 5660 5661 5661 5662 5662 5662 5662 5661 5661 5662 5661 5661 5661 5660 5660 5660 5659 5660 5659 5659 5659 5659 5660 5660 5660 5660 5661 5661 5661 5661 5661 5661 5661 5661 5661
5645 5646 5647 5647 5648 5648 5648 5648 5647 5646 5645 5645 5645 5645 5645 5644 5643 5644 5644 5644 5644 5644 5644 5644 5645 5645 5646 5646 5647 5647 5648 5648 5648 5648 5649 5649 5650 5650
5633 5633 5634 5634 5634 5633 5633 5633 5631 5630 5629 5628 5628 5628 5628 5627 5627 5627 5626 5626 5627 5627 5628 5629 5629 5630 5631 5631 5632 5633 5633 5634 5635 5636 5636 5637 5638 5638
5620 5620 5620 5620 5619 5618 5617 5616 5615 5613 5612 5611 5611 5610 5610 5609 5608 5608 5608 5608 5610 5612 5610 5612 5612 5613 5615 5616 5616 5617 5618 5619 5621 5622 5623 5624 5625 5626
5606 5606 5605 5604 5603 5602 5601 5599 5597 5595 5594 5593 5592 5591 5591 5591 5589 5589 5589 5589 5591 5592 5592 5594 5595 5596 5598 5599 5600 5601 5603 5604 5606 5607 5609 5611 5612 5614
5592 5590 5589 5588 5586 5585 5583 5581 5579 5576 5574 5572 5572 5571 5570 5569 5569 5569 5569 5569 5571 5572 5573 5574 5577 5578 5580 5582 5583 5585 5587 5589 5591 5593 5595 5597 5599 5601
5576 5574 5572 5570 5569 5566 5564 5562 5559 5557 5554 5552 5550 5549 5548 5547 5546 5546 5547 5547 5549 5552 5553 5554 5557 5559 5561 5564 5566 5568 5570 5573 5575 5577 5580 5583 5585 5587
5560 5556 5554 5551 5549 5545 5543 5540 5538 5535 5533 5530 5528 5526 5525 5524 5524 5523 5524 5525 5527 5530 5533 5534 5537 5539 5542 5546 5548 5551 5553 5556 5559 5562 5565 5568 5571 5574
5542 5539 5535 5532 5528 5525 5521 5518 5515 5513 5510 5508 5506 5504 5502 5501 5501 5501 5502 5503 5505 5508 5512 5514 5517 5519 5523 5527 5530 5533 5536 5540 5543 5547 5551 5554 5558 5562
5523 5519 5515 5510 5506 5502 5498 5495 5492 5490 5487 5485 5483 5482 5480 5480 5479 5479 5479 5481 5483 5487 5490 5493 5497 5501 5504 5508 5512 5516 5520 5524 5528 5532 5537 5541 5545 5549
5501 5497 5492 5488 5483 5480 5476 5472 5469 5467 5465 5463 5461 5459 5458 5457 5457 5457 5458 5459 5462 5465 5469 5473 5478 5481 5485 5490 5495 5500 5504 5509 5514 5519 5523 5528 5532 5536
5481 5476 5471 5466 5461 5458 5454 5451 5447 5444 5442 5440 5438 5437 5436 5435 5435 5436 5437 5438 5441 5445 5449 5454 5458 5463 5468 5474 5479 5484 5489 5495 5500 5505 5510 5515 5520 5524
5461 5456 5451 5446 5441 5436 5432 5429 5426 5423 5421 5419 5417 5417 5416 5415 5415 5416 5417 5419 5422 5427 5431 5436 5441 5447 5452 5458 5464 5470 5475 5481 5486 5492 5497 5502 5508 5513
5442 5437 5431 5426 5421 5416 5412 5409 5407 5404 5401 5400 5398 5397 5397 5397 5397 5398 5399 5402 5405 5410 5415 5420 5426 5431 5437 5444 5450 5456 5462 5468 5474 5479 5485 5491 5496 5501
5424 5418 5413 5407 5402 5398 5394 5391 5388 5385 5383 5382 5381 5380 5380 5380 5381 5382 5384 5387 5390 5395 5400 5405 5411 5417 5424 5431 5438 5444 5450 5456 5462 5468 5474 5480 5485 5490
5407 5401 5395 5390 5385 5381 5377 5374 5372 5369 5367 5366 5365 5365 5365 5365 5366 5368 5370 5373 5377 5382 5387 5393 5399 5406 5413 5420 5426 5433 5439 5445 5451 5457 5463 5468 5474 5480
5391 5385 5379 5374 5370 5366 5363 5360 5357 5355 5353 5352 5351 5351 5351 5352 5354 5355 5358 5361 5365 5371 5377 5383 5389 5395 5402 5409 5416 5422 5429 5434 5441 5447 5453 5459 5464 5470
5377 5371 5366 5361 5357 5353 5350 5347 5345 5343 5341 5340 5340 5339 5340 5341 5343 5345 5348 5352 5356 5362 5367 5373 5379 5386 5393 5400 5406 5413 5419 5425 5431 5437 5443 5450 5455 5461
5364 5359 5354 5350 5346 5342 5339 5336 5334 5332 5331 5330 5329 5329 5330 5332 5334 5337 5340 5344 5349 5354 5359 5365 5372 5378 5385 5391 5398 5404 5410 5416 5422 5428 5435 5440 5446 5451